This demonstration page uses our WeatherBlox Daily Observations layout. Learn more.

38.89511, -77.03637

Hourly Observations for January 23, 2018

Temp ( °F °C ) Dew Point ( °F °C ) Humidity (%) Winds ( mph kmh ) Pressure ( in mb ) Visibility ( mi km ) Precip ( " mm )
12:52 am 00:52 Cloudy 52 11.1 44 6.7 75 75 S 8 13 29.9 1013 10 16.0934 0 0
1:14 am 01:14 Cloudy 52 11.1 44 6.7 75 75 S 6 9 29.88 1012 10 16.0934 0 0
1:52 am 01:52 Cloudy 52 11.1 45 7.2 77 77 S 7 11 29.86 1011 10 16.0934 0 0
2:07 am 02:07 Mostly Cloudy 51 10.6 44 6.7 77 77 S 9 15 29.85 1011 10 16.0934 0 0
2:27 am 02:27 Cloudy with Light Rain 52 11.1 45 7.2 77 77 S 12 19 29.83 1010 10 16.0934 0 0.0254
2:52 am 02:52 Cloudy 53 11.7 47 8.3 80 80 S 10 17 29.82 1010 10 16.0934 0 0.0254
3:15 am 03:15 Cloudy 52 11.1 47 8.3 83 83 S 10 17 29.83 1010 10 16.0934 0 0
3:52 am 03:52 Cloudy with Light Rain 53 11.7 50 10 89 89 S 10 17 29.8 1009 10 16.0934 0 0.0254
4:52 am 04:52 Cloudy with Light Rain 54 12.2 52 11.1 93 93 S 14 22 29.75 1007 10 16.0934 0 0.0254
5:22 am 05:22 Cloudy with Light Rain 55 12.8 54 12.2 96 96 S 14 22 29.71 1006 5 8.0467 0 0.0254
5:40 am 05:40 Cloudy with Light Rain 55 12.8 54 12.2 96 96 S 13 20 29.71 1006 5 8.0467 0.02 0.508
5:49 am 05:49 Cloudy with Light Rain 55 13 54 12 94 94 S 13 20 29.71 1006 5 8.0467 0.03 0.762
5:52 am 05:52 Cloudy with Light Rain 55 12.8 54 12.2 96 96 S 13 20 29.7 1006 5 8.0467 0.03 0.762
6:18 am 06:18 Cloudy with Light Rain 56 13.3 54 12.2 93 93 S 15 24 29.68 1005 7 11.26538 0.01 0.254
6:52 am 06:52 Cloudy with Light Rain 55 12.8 54 12.2 96 96 S 18 30 29.67 1005 2.5 4.02335 0.02 0.508
7:06 am 07:06 Cloudy with Light Rain 56 13.3 56 13.3 100 100 S 16 26 29.68 1005 4 6.43736 0.06 1.524
7:52 am 07:52 Cloudy 54 12.2 54 12.2 100 100 S 16 26 29.65 1004 7 11.26538 0.06 1.524
8:52 am 08:52 Cloudy 57 13.9 56 13.3 96 96 S 9 15 29.65 1004 10 16.0934 0 0
9:23 am 09:23 Cloudy 60 15.6 58 14.4 93 93 SSW 12 19 29.65 1004 10 16.0934 0 0
9:37 am 09:37 Cloudy 62 16.7 59 15 90 90 SSW 17 28 29.65 1004 10 16.0934 0 0
9:52 am 09:52 Cloudy 63 17.2 60 15.6 90 90 S 14 22 29.65 1004 10 16.0934 0 0
10:52 am 10:52 Partly Cloudy 66 18.9 60 15.6 81 81 SW 13 20 29.63 1003 10 16.0934 0 0
11:33 am 11:33 Mostly Cloudy 66 18.9 59 15 78 78 NW 9 15 29.62 1003 10 16.0934 0 0
11:47 am 11:47 Mostly Cloudy 64 18 57 14 78 78 NW 10 17 29.62 1003 10 16.0934 0 0
11:52 am 11:52 Mostly Cloudy 65 18.3 57 13.9 76 76 N 3 6 29.61 1003 10 16.0934 0 0
12:52 pm 12:52 Partly Cloudy 66 18.9 55 12.8 68 68 N 12 19 29.57 1002 10 16.0934 0 0
1:52 pm 13:52 Mostly Cloudy 63 17.2 50 10 63 63 N 13 20 29.58 1002 10 16.0934 0 0
2:52 pm 14:52 Mostly Cloudy 61 16.1 45 7.2 56 56 NW 21 33 29.63 1003 10 16.0934 0 0
3:52 pm 15:52 Partly Cloudy 60 15.6 38 3.3 44 44 NW 18 30 29.66 1005 10 16.0934 0 0
4:52 pm 16:52 Mostly Sunny 58 14.4 31 -0.6 36 36 NW 16 26 29.7 1006 10 16.0934 0 0
5:52 pm 17:52 Clear 55 12.8 31 -0.6 40 40 NW 13 20 29.75 1007 10 16.0934 0 0
6:52 pm 18:52 Clear 53 11.7 29 -1.7 40 40 W 6 9 29.79 1009 10 16.0934 0 0
7:52 pm 19:52 Clear 52 11.1 28 -2.2 40 40 NW 12 19 29.83 1010 10 16.0934 0 0
8:52 pm 20:52 Clear 50 10 28 -2.2 43 43 WNW 8 13 29.83 1010 10 16.0934 0 0
9:52 pm 21:52 Clear 50 10 27 -2.8 41 41 WNW 13 20 29.85 1011 10 16.0934 0 0
10:52 pm 22:52 Clear 49 9.4 27 -2.8 43 43 W 12 19 29.87 1011 10 16.0934 0 0
11:52 pm 23:52 Clear 48 8.9 27 -2.8 44 44 WNW 8 13 29.88 1012 10 16.0934 0 0

Powered by AerisWeather